カタログに戻る

STARLINK-36202

運用中通信VLEO
NORAD 67094·PAYLOAD·🇺🇸 United States

打ち上げ Dec 14, 2025 から Vandenberg Space Force Base

Loading…

次のパス (今後24時間)

TLE

最新Source: CelesTrak SupGP

元期: Sep 15, 2026, 04:20 UTC

1 67094C 25298V   26258.18104167 -.00039933  00000+0 -33465-2 0  2582
2 67094  70.0000 256.5333 0003788 268.4036 144.0686 14.98349020    17

AllMySatでSTARLINK-36202をリアルタイム追跡

Download on the App Store